This demonstration page uses our WeatherBlox Daily Observations layout. Learn more.

Left ArrowRight Arrow

Hourly Observations for January 9, 2020

Temp ( °F °C ) Dew Point ( °F °C ) Humidity (%) Winds ( mph kmh ) Pressure ( in mb ) Visibility ( mi km ) Precip ( " mm )
12:53 am 00:53 Clear 25 -3.9 17 -8.3 72 72 E 6 9 30.48 1032 10 16 0.00 0.00
1:53 am 01:53 Clear 23 -5 17 -8.3 78 78 E 5 7 30.48 1032 10 16 0.00 0.00
2:53 am 02:53 Clear 24 -4.4 17 -8.3 75 75 E 6 9 30.48 1032 10 16 0.00 0.00
3:53 am 03:53 Clear 24 -4.4 17 -8.3 75 75 E 6 9 30.48 1032 10 16 0.00 0.00
4:53 am 04:53 Clear 22 -5.6 17 -8.3 82 82 E 5 7 30.47 1032 10 16 0.00 0.00
5:53 am 05:53 Clear 20 -6.7 17 -8.3 89 89 E 5 7 30.47 1032 10 16 0.00 0.00
6:53 am 06:53 Clear 21 -6.1 17 -8.3 85 85 E 5 7 30.47 1032 10 16 0.00 0.00
7:53 am 07:53 Clear 22 -5.6 17 -8.3 82 82 Calm 30.46 1032 10 16 0.00 0.00
8:53 am 08:53 Sunny 27 -2.8 20 -6.7 75 75 E 3 6 30.46 1032 10 16 0.00 0.00
9:53 am 09:53 Sunny 33 0.6 18 -7.8 54 54 ESE 5 7 30.46 1031 10 16 0.00 0.00
10:53 am 10:53 Sunny 39 3.9 19 -7.2 45 45 VRB 5 7 30.45 1031 10 16 0.00 0.00
11:53 am 11:53 Sunny 46 7.8 23 -5 40 40 VRB 5 7 30.40 1029 10 16 0.00 0.00
12:53 pm 12:53 Sunny 51 10.6 25 -3.9 36 36 VRB 6 9 30.35 1028 10 16 0.00 0.00
1:53 pm 13:53 Sunny 54 12.2 26 -3.3 34 34 VRB 5 7 30.30 1026 10 16 0.00 0.00
2:53 pm 14:53 Sunny 57 13.9 27 -2.8 32 32 S 9 15 30.26 1025 10 16 0.00 0.00
3:53 pm 15:53 Sunny 59 15 26 -3.3 28 28 S 8 13 30.25 1024 10 16 0.00 0.00
4:53 pm 16:53 Sunny 58 14.4 25 -3.9 28 28 S 9 15 30.25 1025 10 16 0.00 0.00
5:53 pm 17:53 Clear 57 13.9 25 -3.9 29 29 S 10 17 30.25 1024 10 16 0.00 0.00
6:53 pm 18:53 Clear 53 11.7 27 -2.8 37 37 VRB 5 7 30.26 1025 10 16 0.00 0.00
7:53 pm 19:53 Clear 53 11.7 29 -1.7 40 40 SSE 5 7 30.24 1024 10 16 0.00 0.00
8:53 pm 20:53 Clear 54 12.2 28 -2.2 37 37 VRB 7 11 30.23 1024 10 16 0.00 0.00
9:53 pm 21:53 Partly Cloudy 54 12.2 27 -2.8 35 35 S 6 9 30.22 1023 10 16 0.00 0.00
10:53 pm 22:53 Mostly Clear 55 12.8 26 -3.3 33 33 VRB 6 9 30.22 1023 10 16 0.00 0.00
11:53 pm 23:53 Mostly Cloudy 56 13.3 28 -2.2 34 34 SSW 10 17 30.21 1023 10 16 0.00 0.00

Powered by AerisWeather